Torna al catalogo

ICEYE-X71

AttivoScienzaSSO
NORAD 68494·PAYLOAD·🇫🇮 Finland

Lanciato Mar 30, 2026 da Vandenberg Space Force Base

Loading…

Prossimi Passaggi (prossime 24 ore)

TLE

AggiornatoSource: Space-Track

Epoca: Sep 14, 2026, 13:58 UTC

1 68494U 26067CG  26257.58250323  .00008056  00000-0  68014-3 0  9993
2 68494  97.7725 214.7010 0004685  75.9139 284.2604 14.98374223 25075

Traccia ICEYE-X71 in tempo reale con AllMySat

Download on the App Store